| time (UTC) | temp C | wind direction | speed KPH | gust KPH | rain 1hr cm | rain 24hr cm | rain mn cm | humidity % | barometer mb |
| 20260509064816 | 8 | 141 | 0.0 | 0.0 | 0.00 | 0.03 | 0.00 | 89 | 1011.0 |
| 20260509064323 | 8 | 141 | 0.0 | 0.0 | 0.00 | 0.03 | 0.00 | 89 | 1011.0 |
| 20260509063827 | 8 | 141 | 0.0 | 0.0 | 0.00 | 0.03 | 0.00 | 89 | 1011.0 |
| 20260509063332 | 8 | 141 | 0.0 | 0.0 | 0.00 | 0.03 | 0.00 | 89 | 1011.1 |
| 20260509062835 | 8 | 141 | 0.0 | 0.0 | 0.00 | 0.03 | 0.00 | 89 | 1011.3 |
| 20260509062319 | 8 | 141 | 0.0 | 0.0 | 0.00 | 0.03 | 0.00 | 88 | 1011.4 |
| 20260509061845 | 8 | 141 | 0.0 | 0.0 | 0.00 | 0.03 | 0.00 | 88 | 1011.5 |
| 20260509061328 | 8 | 141 | 0.0 | 0.0 | 0.00 | 0.03 | 0.00 | 88 | 1011.6 |
| 20260509060852 | 8 | 141 | 0.0 | 0.0 | 0.00 | 0.03 | 0.00 | 88 | 1011.6 |
| 20260509060312 | 8 | 141 | 0.0 | 0.0 | 0.00 | 0.03 | 0.00 | 88 | 1011.5 |
| 20260509055824 | 8 | 141 | 0.0 | 0.0 | 0.00 | 0.03 | 0.00 | 88 | 1011.5 |
| 20260509055330 | 8 | 141 | 0.0 | 0.0 | 0.00 | 0.03 | 0.00 | 87 | 1011.6 |
| 20260509054814 | 8 | 141 | 0.0 | 0.0 | 0.00 | 0.03 | 0.00 | 87 | 1011.6 |
| 20260509054322 | 8 | 141 | 0.0 | 0.0 | 0.00 | 0.03 | 0.00 | 87 | 1011.6 |
| 20260509053827 | 8 | 141 | 0.0 | 0.0 | 0.00 | 0.03 | 0.00 | 87 | 1011.6 |
| 20260509053313 | 8 | 141 | 0.0 | 0.0 | 0.00 | 0.03 | 0.00 | 87 | 1011.7 |
| 20260509052821 | 8 | 141 | 0.0 | 0.0 | 0.00 | 0.03 | 0.00 | 87 | 1011.7 |
| 20260509052326 | 8 | 141 | 0.0 | 0.0 | 0.00 | 0.03 | 0.00 | 87 | 1012.0 |
| 20260509051830 | 8 | 167 | 0.0 | 0.0 | 0.00 | 0.03 | 0.00 | 87 | 1012.1 |
| 20260509051316 | 8 | 167 | 0.0 | 0.0 | 0.00 | 0.03 | 0.00 | 86 | 1012.3 |
| 20260509050842 | 8 | 167 | 0.0 | 0.0 | 0.00 | 0.03 | 0.00 | 86 | 1012.3 |
| 20260509050326 | 8 | 150 | 0.0 | 0.0 | 0.00 | 0.03 | 0.00 | 86 | 1012.4 |
| 20260509045814 | 8 | 150 | 0.0 | 0.0 | 0.00 | 0.03 | 0.00 | 86 | 1012.3 |
| 20260509045321 | 9 | 150 | 0.0 | 0.0 | 0.00 | 0.03 | 0.00 | 85 | 1012.5 |
| 20260509044845 | 9 | 163 | 0.0 | 0.0 | 0.00 | 0.03 | 0.00 | 85 | 1012.4 |
| 20260509044328 | 9 | 163 | 0.0 | 0.0 | 0.00 | 0.03 | 0.00 | 85 | 1012.4 |
| 20260509043814 | 9 | 151 | 0.0 | 0.0 | 0.00 | 0.03 | 0.00 | 85 | 1012.2 |
| 20260509043322 | 9 | 136 | 0.0 | 0.0 | 0.00 | 0.03 | 0.00 | 84 | 1012.2 |
| 20260509042826 | 9 | 136 | 0.0 | 0.0 | 0.00 | 0.03 | 0.00 | 84 | 1012.3 |
| 20260509042349 | 9 | 136 | 0.0 | 0.0 | 0.00 | 0.03 | 0.00 | 84 | 1012.2 |
| 20260509041834 | 9 | 146 | 0.0 | 0.0 | 0.00 | 0.03 | 0.00 | 83 | 1012.2 |
| 20260509041318 | 10 | 146 | 0.0 | 0.0 | 0.00 | 0.03 | 0.00 | 83 | 1012.3 |
| 20260509040823 | 10 | 146 | 0.0 | 0.0 | 0.00 | 0.03 | 0.00 | 83 | 1012.3 |
| 20260509040350 | 10 | 146 | 0.0 | 0.0 | 0.00 | 0.03 | 0.00 | 82 | 1012.3 |
| 20260509035835 | 9 | 146 | 0.0 | 0.0 | 0.00 | 0.03 | 0.03 | 82 | 1012.3 |
| 20260509035320 | 9 | 146 | 0.0 | 0.0 | 0.00 | 0.03 | 0.03 | 81 | 1012.5 |
| 20260509034846 | 9 | 146 | 0.0 | 0.0 | 0.00 | 0.03 | 0.03 | 81 | 1012.6 |
| 20260509034315 | 9 | 146 | 0.0 | 0.0 | 0.00 | 0.03 | 0.03 | 81 | 1012.6 |
| 20260509033840 | 10 | 146 | 0.0 | 0.0 | 0.00 | 0.03 | 0.03 | 81 | 1012.4 |
| 20260509033326 | 10 | 146 | 0.0 | 0.0 | 0.00 | 0.03 | 0.03 | 81 | 1012.3 |
| 20260509032829 | 10 | 146 | 0.0 | 0.0 | 0.00 | 0.03 | 0.03 | 81 | 1012.3 |
| 20260509032335 | 10 | 146 | 0.0 | 0.0 | 0.00 | 0.03 | 0.03 | 80 | 1012.1 |
| 20260509031820 | 10 | 146 | 0.0 | 0.0 | 0.00 | 0.03 | 0.03 | 80 | 1012.2 |
| 20260509031328 | 10 | 146 | 0.0 | 0.0 | 0.00 | 0.03 | 0.03 | 80 | 1012.1 |
| 20260509030832 | 10 | 146 | 0.0 | 0.0 | 0.00 | 0.03 | 0.03 | 80 | 1012.2 |
| 20260509030318 | 10 | 146 | 0.0 | 0.0 | 0.00 | 0.03 | 0.03 | 80 | 1012.1 |
| 20260509025823 | 10 | 146 | 0.0 | 0.0 | 0.00 | 0.03 | 0.03 | 80 | 1012.3 |
| 20260509025331 | 10 | 146 | 0.0 | 0.0 | 0.00 | 0.03 | 0.03 | 79 | 1012.3 |
| 20260509024816 | 10 | 146 | 0.0 | 0.0 | 0.00 | 0.03 | 0.03 | 79 | 1012.5 |
| 20260509024325 | 10 | 146 | 0.0 | 0.0 | 0.00 | 0.03 | 0.03 | 78 | 1012.4 |
| 20260509023831 | 10 | 129 | 0.0 | 0.0 | 0.00 | 0.03 | 0.03 | 77 | 1012.4 |
| 20260509023315 | 10 | 129 | 0.0 | 0.0 | 0.00 | 0.03 | 0.03 | 76 | 1012.5 |
| 20260509022820 | 10 | 203 | 0.0 | 0.0 | 0.00 | 0.03 | 0.03 | 75 | 1012.5 |
| 20260509022325 | 10 | 222 | 0.0 | 0.0 | 0.00 | 0.03 | 0.03 | 75 | 1012.6 |
| 20260509021829 | 10 | 222 | 0.0 | 0.0 | 0.00 | 0.03 | 0.03 | 74 | 1012.5 |
| 20260509021317 | 10 | 222 | 0.0 | 0.0 | 0.00 | 0.03 | 0.03 | 74 | 1012.5 |
| 20260509020822 | 11 | 222 | 0.0 | 0.0 | 0.00 | 0.03 | 0.03 | 74 | 1012.2 |
| 20260509020329 | 11 | 239 | 0.0 | 0.0 | 0.00 | 0.03 | 0.03 | 74 | 1012.3 |
| 20260509015828 | 11 | 239 | 0.0 | 0.0 | 0.00 | 0.03 | 0.03 | 73 | 1012.2 |
| 20260509015316 | 11 | 238 | 0.0 | 4.8 | 0.00 | 0.03 | 0.03 | 73 | 1011.8 |
| 20260509014822 | 11 | 198 | 0.0 | 8.0 | 0.00 | 0.03 | 0.03 | 73 | 1011.9 |
| 20260509014325 | 11 | 250 | 0.0 | 0.0 | 0.00 | 0.03 | 0.03 | 73 | 1012.3 |
| 20260509013829 | 11 | 210 | 0.0 | 0.0 | 0.00 | 0.03 | 0.03 | 72 | 1012.3 |
| 20260509013315 | 11 | 203 | 0.0 | 0.0 | 0.00 | 0.03 | 0.03 | 71 | 1012.3 |
| 20260509012821 | 11 | 283 | 0.0 | 3.2 | 0.00 | 0.03 | 0.03 | 70 | 1012.4 |
| 20260509012325 | 11 | 231 | 0.0 | 3.2 | 0.00 | 0.03 | 0.03 | 70 | 1012.3 |
| 20260509011831 | 11 | 211 | 0.0 | 0.0 | 0.00 | 0.03 | 0.03 | 70 | 1012.1 |
| 20260509011314 | 11 | 186 | 0.0 | 0.0 | 0.00 | 0.03 | 0.03 | 69 | 1012.0 |
| 20260509010819 | 11 | 238 | 0.0 | 0.0 | 0.00 | 0.03 | 0.03 | 69 | 1011.7 |
| 20260509010343 | 11 | 238 | 0.0 | 0.0 | 0.00 | 0.03 | 0.03 | 68 | 1011.6 |
| 20260509005826 | 12 | 283 | 0.0 | 1.6 | 0.00 | 0.03 | 0.03 | 68 | 1011.6 |
| 20260509005316 | 12 | 231 | 0.0 | 1.6 | 0.00 | 0.03 | 0.03 | 68 | 1011.6 |
| 20260509004824 | 12 | 226 | 0.0 | 0.0 | 0.00 | 0.03 | 0.03 | 67 | 1011.4 |
| 20260509004329 | 12 | 30 | 0.0 | 0.0 | 0.00 | 0.03 | 0.03 | 67 | 1011.4 |
| 20260509003832 | 12 | 247 | 0.0 | 0.0 | 0.00 | 0.03 | 0.03 | 67 | 1011.6 |
| 20260509003316 | 12 | 240 | 0.0 | 0.0 | 0.00 | 0.03 | 0.03 | 67 | 1011.5 |
| 20260509002820 | 12 | 219 | 0.0 | 0.0 | 0.00 | 0.03 | 0.03 | 67 | 1011.5 |
| 20260509002324 | 12 | 214 | 0.0 | 0.0 | 0.00 | 0.03 | 0.03 | 67 | 1011.6 |
| 20260509001830 | 12 | 213 | 0.0 | 0.0 | 0.00 | 0.03 | 0.03 | 67 | 1011.7 |
| 20260509001335 | 12 | 232 | 0.0 | 0.0 | 0.00 | 0.03 | 0.03 | 66 | 1011.7 |
| 20260509000820 | 12 | 217 | 0.0 | 0.0 | 0.00 | 0.03 | 0.03 | 66 | 1011.6 |
| 20260509000348 | 12 | 152 | 0.0 | 0.0 | 0.00 | 0.03 | 0.03 | 65 | 1011.6 |
| 20260508235831 | 12 | 320 | 0.0 | 9.7 | 0.00 | 0.03 | 0.03 | 65 | 1011.6 |
| 20260508235316 | 12 | 228 | 1.6 | 9.7 | 0.00 | 0.03 | 0.03 | 65 | 1011.5 |
| 20260508234822 | 12 | 231 | 0.0 | 6.4 | 0.00 | 0.03 | 0.03 | 65 | 1011.5 |
| 20260508234329 | 12 | 223 | 0.0 | 9.7 | 0.00 | 0.03 | 0.03 | 65 | 1011.5 |
| 20260508233831 | 12 | 226 | 1.6 | 9.7 | 0.00 | 0.03 | 0.03 | 65 | 1011.4 |
| 20260508233315 | 12 | 289 | 0.0 | 0.0 | 0.00 | 0.03 | 0.03 | 65 | 1011.4 |
| 20260508232822 | 13 | 207 | 0.0 | 3.2 | 0.00 | 0.03 | 0.03 | 64 | 1011.4 |
| 20260508232326 | 13 | 243 | 0.0 | 1.6 | 0.00 | 0.03 | 0.03 | 64 | 1011.4 |
| 20260508231831 | 13 | 246 | 0.0 | 1.6 | 0.00 | 0.03 | 0.03 | 64 | 1011.3 |
| 20260508231335 | 13 | 161 | 0.0 | 12.9 | 0.00 | 0.03 | 0.03 | 64 | 1011.3 |
| 20260508230822 | 13 | 313 | 1.6 | 12.9 | 0.00 | 0.03 | 0.03 | 64 | 1011.2 |
| 20260508230324 | 13 | 206 | 0.0 | 17.7 | 0.00 | 0.03 | 0.03 | 64 | 1011.1 |
| 20260508225829 | 13 | 206 | 3.2 | 17.7 | 0.00 | 0.03 | 0.03 | 64 | 1011.1 |
| 20260508225315 | 14 | 223 | 0.0 | 3.2 | 0.00 | 0.03 | 0.03 | 64 | 1010.9 |
| 20260508224822 | 14 | 303 | 0.0 | 1.6 | 0.00 | 0.03 | 0.03 | 63 | 1010.9 |
| 20260508224326 | 15 | 226 | 0.0 | 9.7 | 0.00 | 0.03 | 0.03 | 63 | 1011.0 |
| 20260508223816 | 15 | 300 | 1.6 | 9.7 | 0.00 | 0.03 | 0.03 | 64 | 1011.1 |
| 20260508223324 | 15 | 306 | 0.0 | 3.2 | 0.00 | 0.03 | 0.03 | 68 | 1011.0 |
| 20260508222830 | 14 | 297 | 0.0 | 0.0 | 0.00 | 0.03 | 0.03 | 72 | 1010.9 |
| 20260508222316 | 13 | 176 | 0.0 | 0.0 | 0.00 | 0.03 | 0.03 | 74 | 1011.0 |
| 20260508221823 | 13 | 269 | 0.0 | 11.3 | 0.00 | 0.03 | 0.03 | 73 | 1011.1 |
| 20260508221329 | 13 | 218 | 0.0 | 0.0 | 0.00 | 0.03 | 0.03 | 75 | 1011.2 |
| 20260508220835 | 13 | 230 | 0.0 | 0.0 | 0.00 | 0.03 | 0.03 | 78 | 1011.2 |
| 20260508220321 | 12 | 229 | 0.0 | 0.0 | 0.00 | 0.03 | 0.03 | 79 | 1011.3 |
| 20260508215844 | 12 | 239 | 0.0 | 0.0 | 0.00 | 0.03 | 0.03 | 79 | 1011.3 |
| 20260508215329 | 11 | 249 | 0.0 | 0.0 | 0.00 | 0.03 | 0.03 | 79 | 1011.3 |
| 20260508214833 | 11 | 335 | 0.0 | 0.0 | 0.00 | 0.03 | 0.03 | 77 | 1011.4 |
| 20260508214321 | 11 | 196 | 0.0 | 0.0 | 0.00 | 0.03 | 0.03 | 77 | 1011.4 |
| 20260508213824 | 11 | 245 | 0.0 | 0.0 | 0.03 | 0.03 | 0.03 | 79 | 1011.3 |
| 20260508213333 | 11 | 214 | 0.0 | 0.0 | 0.03 | 0.03 | 0.03 | 80 | 1011.3 |
| 20260508212816 | 11 | 276 | 0.0 | 0.0 | 0.03 | 0.03 | 0.03 | 81 | 1011.3 |
| 20260508212320 | 11 | 236 | 0.0 | 0.0 | 0.03 | 0.03 | 0.03 | 82 | 1011.2 |
| 20260508211827 | 11 | 220 | 0.0 | 0.0 | 0.03 | 0.03 | 0.03 | 80 | 1011.2 |
| 20260508211332 | 11 | 216 | 0.0 | 0.0 | 0.03 | 0.03 | 0.03 | 80 | 1011.3 |
| 20260508210814 | 11 | 213 | 0.0 | 0.0 | 0.03 | 0.03 | 0.03 | 80 | 1011.3 |
| 20260508210343 | 11 | 213 | 0.0 | 1.6 | 0.03 | 0.03 | 0.03 | 79 | 1011.3 |
| 20260508205846 | 11 | 224 | 0.0 | 12.9 | 0.03 | 0.03 | 0.03 | 77 | 1011.5 |
| 20260508205330 | 11 | 232 | 3.2 | 17.7 | 0.03 | 0.03 | 0.03 | 76 | 1011.5 |
| 20260508204813 | 12 | 231 | 0.0 | 17.7 | 0.03 | 0.03 | 0.03 | 74 | 1011.5 |
| 20260508204319 | 12 | 248 | 0.0 | 19.3 | 0.03 | 0.03 | 0.03 | 70 | 1011.8 |
| 20260508203823 | 13 | 294 | 9.7 | 24.1 | 0.00 | 0.00 | 0.00 | 66 | 1011.7 |
| 20260508203326 | 13 | 210 | 3.2 | 24.1 | 0.00 | 0.00 | 0.00 | 58 | 1011.4 |
| 20260508202852 | 14 | 23 | 0.0 | 22.5 | 0.00 | 0.00 | 0.00 | 58 | 1011.2 |
| 20260508202320 | 14 | 237 | 0.0 | 0.0 | 0.00 | 0.00 | 0.00 | 58 | 1010.9 |
| 20260508201825 | 15 | 153 | 0.0 | 0.0 | 0.00 | 0.00 | 0.00 | 58 | 1010.8 |
| 20260508201327 | 15 | 200 | 0.0 | 0.0 | 0.00 | 0.00 | 0.00 | 56 | 1010.9 |
| 20260508200814 | 15 | 235 | 0.0 | 0.0 | 0.00 | 0.00 | 0.00 | 57 | 1010.8 |
| 20260508200322 | 15 | 250 | 0.0 | 0.0 | 0.00 | 0.00 | 0.00 | 55 | 1011.0 |
| 20260508195825 | 15 | 232 | 0.0 | 0.0 | 0.00 | 0.00 | 0.00 | 56 | 1011.0 |
| 20260508195329 | 15 | 269 | 0.0 | 0.0 | 0.00 | 0.00 | 0.00 | 56 | 1011.1 |
| 20260508194852 | 15 | 232 | 0.0 | 0.0 | 0.00 | 0.00 | 0.00 | 58 | 1011.1 |
| 20260508194351 | 15 | 238 | 0.0 | 0.0 | 0.00 | 0.00 | 0.00 | 57 | 1011.2 |
| 20260508193813 | 15 | 226 | 0.0 | 0.0 | 0.00 | 0.00 | 0.00 | 56 | 1011.2 |
| 20260508193339 | 15 | 226 | 0.0 | 0.0 | 0.00 | 0.00 | 0.00 | 56 | 1011.1 |
| 20260508192825 | 15 | 264 | 0.0 | 0.0 | 0.00 | 0.00 | 0.00 | 56 | 1011.2 |
| 20260508192325 | 15 | 335 | 0.0 | 0.0 | 0.00 | 0.00 | 0.00 | 54 | 1011.3 |
| 20260508191830 | 15 | 276 | 0.0 | 0.0 | 0.00 | 0.00 | 0.00 | 54 | 1011.1 |
| 20260508191314 | 15 | 32 | 0.0 | 0.0 | 0.00 | 0.00 | 0.00 | 52 | 1011.2 |
| 20260508190820 | 15 | 15 | 0.0 | 0.0 | 0.00 | 0.00 | 0.00 | 53 | 1011.2 |
| 20260508190329 | 15 | 289 | 0.0 | 0.0 | 0.00 | 0.00 | 0.00 | 52 | 1011.3 |
| 20260508185815 | 15 | 347 | 0.0 | 6.4 | 0.00 | 0.00 | 0.00 | 52 | 1011.3 |
| 20260508185318 | 15 | 32 | 0.0 | 16.1 | 0.00 | 0.00 | 0.00 | 55 | 1011.3 |
| 20260508184823 | 15 | 265 | 0.0 | 1.6 | 0.00 | 0.00 | 0.00 | 58 | 1011.3 |
| 20260508184350 | 14 | 315 | 0.0 | 0.0 | 0.00 | 0.00 | 0.00 | 60 | 1011.4 |
| 20260508183834 | 14 | 266 | 0.0 | 0.0 | 0.00 | 0.00 | 0.00 | 59 | 1011.7 |
| 20260508183338 | 14 | 307 | 0.0 | 0.0 | 0.00 | 0.00 | 0.00 | 55 | 1011.8 |
| 20260508182845 | 15 | 16 | 0.0 | 0.0 | 0.00 | 0.00 | 0.00 | 55 | 1011.8 |
| 20260508182328 | 15 | 287 | 0.0 | 0.0 | 0.00 | 0.00 | 0.00 | 54 | 1011.7 |
| 20260508181832 | 15 | 316 | 0.0 | 0.0 | 0.00 | 0.00 | 0.00 | 53 | 1011.6 |
| 20260508181317 | 15 | 266 | 0.0 | 0.0 | 0.00 | 0.00 | 0.00 | 53 | 1011.5 |
| 20260508180818 | 15 | 251 | 0.0 | 0.0 | 0.00 | 0.00 | 0.00 | 53 | 1011.6 |
| 20260508180323 | 15 | 79 | 0.0 | 12.9 | 0.00 | 0.00 | 0.00 | 52 | 1011.7 |
| 20260508175846 | 15 | 71 | 0.0 | 12.9 | 0.00 | 0.00 | 0.00 | 55 | 1011.7 |
| 20260508175315 | 15 | 352 | 0.0 | 4.8 | 0.00 | 0.00 | 0.00 | 58 | 1011.8 |
| 20260508174822 | 14 | 309 | 1.6 | 6.4 | 0.00 | 0.00 | 0.00 | 60 | 1011.7 |
| 20260508174320 | 13 | 292 | 0.0 | 6.4 | 0.00 | 0.00 | 0.00 | 60 | 1011.9 |
| 20260508173825 | 13 | 321 | 0.0 | 0.0 | 0.00 | 0.00 | 0.00 | 63 | 1012.1 |
| 20260508173330 | 13 | 84 | 0.0 | 0.0 | 0.00 | 0.00 | 0.00 | 65 | 1012.2 |
| 20260508172834 | 13 | 278 | 0.0 | 6.4 | 0.00 | 0.00 | 0.00 | 65 | 1012.0 |
| 20260508172318 | 13 | 285 | 0.0 | 11.3 | 0.00 | 0.00 | 0.00 | 63 | 1012.1 |